DLH14F LTAI-EDDM

Flight info

Callsign DLH14F
Flight time N/A
Altitude 40000
Route EKNUD1K/18L EKNUD UQ26 DIGBO UL615 VADEN Y520 OSTEX DCT UTEKA DCT DONIV DCT BABIT DCT GOTAR DCT AMADI Q113 NAPSA NAPSA1B
Aircraft A333/H-SDE3GHIJ2J3J5M1RVWXY/LB2D1

Departure

Time 2026-05-05 14:58
Airport Antalya International Airport (LTAI)

Arrival

Time N/A
Airport Munich Airport (EDDM)
Time Latitude Longitude Altitude Speed Heading
2026-05-05 14:37 36.89697 30.80098 182 ft 0 kts
2026-05-05 14:47 36.89691 30.80098 204 ft 3 kts 19°
2026-05-05 14:47 36.89674 30.80084 202 ft 3 kts 67°
2026-05-05 14:47 36.89670 30.80071 202 ft 0 kts 95°
2026-05-05 14:51 36.89667 30.80081 202 ft 3 kts 109°
2026-05-05 14:51 36.89639 30.80131 191 ft 13 kts 130°
2026-05-05 14:51 36.89599 30.80248 193 ft 14 kts 99°
2026-05-05 14:51 36.89585 30.80372 188 ft 15 kts 97°
2026-05-05 14:52 36.89574 30.80503 185 ft 16 kts 96°
2026-05-05 14:52 36.89567 30.80633 195 ft 11 kts 78°
2026-05-05 14:52 36.89608 30.80686 199 ft 8 kts 27°
2026-05-05 14:52 36.89652 30.80698 194 ft 6 kts
2026-05-05 14:53 36.89714 30.80707 194 ft 13 kts
2026-05-05 14:53 36.89817 30.80720 195 ft 15 kts
2026-05-05 14:53 36.89926 30.80735 195 ft 16 kts
2026-05-05 14:53 36.90042 30.80751 202 ft 17 kts
2026-05-05 14:54 36.90162 30.80769 197 ft 18 kts
2026-05-05 14:54 36.90285 30.80787 193 ft 19 kts
2026-05-05 14:54 36.90416 30.80803 193 ft 19 kts
2026-05-05 14:54 36.90550 30.80822 196 ft 20 kts
2026-05-05 14:55 36.90689 30.80842 200 ft 20 kts
2026-05-05 14:55 36.90825 30.80861 194 ft 16 kts
2026-05-05 14:55 36.90939 30.80876 204 ft 17 kts
2026-05-05 14:55 36.91059 30.80892 204 ft 18 kts
2026-05-05 14:56 36.91135 30.80950 209 ft 7 kts 66°
2026-05-05 14:56 36.91138 30.80987 206 ft 0 kts 90°
2026-05-05 14:56 36.91138 30.80992 206 ft 1 kts 90°
2026-05-05 14:56 36.91137 30.81023 203 ft 9 kts 92°
2026-05-05 14:57 36.91112 30.81109 209 ft 9 kts 143°
2026-05-05 14:57 36.91046 30.81129 205 ft 11 kts 180°
2026-05-05 14:57 36.90883 30.81110 197 ft 52 kts 187°
2026-05-05 14:57 36.90252 30.81021 196 ft 130 kts 186°
2026-05-05 14:58 36.89135 30.80867 468 ft 181 kts 186°
2026-05-05 14:58 36.87781 30.80776 1243 ft 215 kts 178°
2026-05-05 14:58 36.86212 30.80995 2136 ft 226 kts 172°
2026-05-05 14:58 36.84678 30.81299 3085 ft 220 kts 170°
2026-05-05 14:59 36.83211 30.81598 4009 ft 212 kts 170°
2026-05-05 14:59 36.81773 30.81897 4896 ft 208 kts 170°
2026-05-05 14:59 36.80380 30.82186 5784 ft 198 kts 167°
2026-05-05 14:59 36.79117 30.82716 6695 ft 186 kts 156°
2026-05-05 15:00 36.77963 30.83379 7381 ft 181 kts 154°
2026-05-05 15:00 36.77219 30.83831 7853 ft 176 kts 154°
2026-05-05 15:00 36.75812 30.84695 8836 ft 160 kts 154°
2026-05-05 15:00 36.74915 30.85362 9527 ft 139 kts 142°
2026-05-05 15:01 36.74273 30.86173 9919 ft 136 kts 124°
2026-05-05 15:01 36.73803 30.87285 10119 ft 141 kts 105°
2026-05-05 15:01 36.73647 30.88367 10529 ft 129 kts 83°
2026-05-05 15:01 36.73729 30.89587 10658 ft 140 kts 75°
2026-05-05 15:02 36.73875 30.90667 11174 ft 123 kts 72°
2026-05-05 15:02 36.74070 30.91824 11231 ft 142 kts 73°
2026-05-05 15:02 36.74207 30.92938 11723 ft 125 kts 79°
2026-05-05 15:02 36.74222 30.94145 11748 ft 150 kts 91°
2026-05-05 15:03 36.73998 30.95329 12246 ft 135 kts 111°
2026-05-05 15:03 36.73403 30.96337 12323 ft 154 kts 144°
2026-05-05 15:03 36.72471 30.96686 12714 ft 136 kts 197°
2026-05-05 15:03 36.71736 30.95982 12622 ft 146 kts 261°
2026-05-05 15:04 36.72131 30.95006 12775 ft 140 kts 348°
2026-05-05 15:04 36.72921 30.95559 13128 ft 145 kts 71°
2026-05-05 15:04 36.72657 30.96751 13242 ft 160 kts 146°
2026-05-05 15:04 36.71559 30.97040 13258 ft 175 kts 196°
2026-05-05 15:05 36.70809 30.94515 13670 ft 202 kts 290°
2026-05-05 15:05 36.71140 30.92668 13723 ft 237 kts 271°
2026-05-05 15:05 36.71060 30.90485 13771 ft 267 kts 274°
2026-05-05 15:06 36.71690 30.88249 13906 ft 288 kts 306°
2026-05-05 15:06 36.73297 30.86626 14036 ft 317 kts 336°
2026-05-05 15:06 36.75524 30.86163 14495 ft 336 kts
2026-05-05 15:06 36.77819 30.86662 15278 ft 342 kts
2026-05-05 15:07 36.80174 30.87132 16148 ft 343 kts
2026-05-05 15:07 36.82557 30.87386 17046 ft 344 kts
2026-05-05 15:07 36.84955 30.87478 17977 ft 344 kts 358°
2026-05-05 15:07 36.87342 30.87474 18839 ft 342 kts 356°
2026-05-05 15:08 36.89712 30.87416 19663 ft 340 kts 355°
2026-05-05 15:08 36.92073 30.87330 20528 ft 337 kts 354°
2026-05-05 15:08 36.94395 30.87230 21403 ft 333 kts 354°
2026-05-05 15:08 36.96688 30.87122 22304 ft 327 kts 353°
2026-05-05 15:09 36.98907 30.87014 23231 ft 320 kts 353°
2026-05-05 15:09 37.01127 30.86904 24080 ft 311 kts 352°
2026-05-05 15:09 37.03228 30.86799 24887 ft 301 kts 352°
2026-05-05 15:09 37.05285 30.86697 25705 ft 289 kts 351°
2026-05-05 15:10 37.07245 30.86599 26573 ft 274 kts 351°
2026-05-05 15:10 37.09121 30.86503 27172 ft 270 kts 351°
2026-05-05 15:10 37.11017 30.86397 27465 ft 274 kts 351°
2026-05-05 15:10 37.12908 30.86296 27961 ft 270 kts 350°
2026-05-05 15:11 37.14764 30.86200 28485 ft 264 kts 350°
2026-05-05 15:11 37.16576 30.86108 29007 ft 257 kts 350°
2026-05-05 15:11 37.18308 30.86021 29543 ft 248 kts 349°
2026-05-05 15:11 37.19992 30.85937 30064 ft 238 kts 349°
2026-05-05 15:12 37.21639 30.85871 30253 ft 239 kts 350°
2026-05-05 15:12 37.23335 30.85864 30216 ft 250 kts 353°
2026-05-05 15:12 37.25092 30.85988 30259 ft 255 kts 358°
2026-05-05 15:12 37.26857 30.86313 30493 ft 255 kts
2026-05-05 15:13 37.28576 30.86829 30764 ft 254 kts
2026-05-05 15:13 37.30251 30.87592 30849 ft 261 kts 16°
2026-05-05 15:13 37.31347 30.88257 30843 ft 269 kts 19°
2026-05-05 15:13 37.33556 30.89805 30953 ft 278 kts 24°
2026-05-05 15:14 37.35149 30.91163 31303 ft 275 kts 30°
2026-05-05 15:14 37.36656 30.92607 31625 ft 270 kts 29°
2026-05-05 15:14 37.38168 30.94015 31748 ft 273 kts 28°
2026-05-05 15:14 37.39713 30.95470 31749 ft 282 kts 30°
2026-05-05 15:15 37.40745 30.96498 31791 ft 285 kts 33°
2026-05-05 15:15 37.42221 30.98166 32027 ft 286 kts 38°
2026-05-05 15:15 37.43561 31.00006 32331 ft 285 kts 45°
2026-05-05 15:15 37.44722 31.02043 32550 ft 290 kts 53°
2026-05-05 15:16 37.45976 31.04833 31163 ft 252 kts 63°
2026-05-05 15:16 37.46747 31.06276 24619 ft 162 kts 59°
2026-05-05 15:16 37.47031 31.06914 18945 ft 66 kts 131°
2026-05-05 15:16 37.47043 31.07519 10075 ft 82 kts
2026-05-05 15:17 37.47387 31.08208 5691 ft 247 kts 46°
2026-05-05 15:17 37.48377 31.09665 6319 ft 206 kts 47°
2026-05-05 15:17 37.49337 31.11085 6604 ft 249 kts 46°
2026-05-05 15:17 37.50219 31.12336 8036 ft 244 kts 47°
2026-05-05 15:18 37.51270 31.13824 8256 ft 229 kts 47°
2026-05-05 15:18 37.52352 31.15362 8154 ft 230 kts 47°